SWA2325 KSAN-KSFO

Flight info

Callsign SWA2325
Flight time 1h 3m
Altitude 36000
Route PADRZ2 IKAYE RIZIN SPLNT STOKD SERFR SERFR4
Aircraft B38M/M-SDE1FGHILORVWXY/HB1

Departure

Time 2026-05-05 01:24
Airport San Diego International Airport (KSAN)

Arrival

Time 2026-05-05 02:27
Airport San Francisco International Airport (KSFO)
Time Latitude Longitude Altitude Speed Heading
2026-05-05 00:43 32.73474 -117.20422 23 ft 0 kts 176°
2026-05-05 01:08 32.73475 -117.20422 23 ft 1 kts 177°
2026-05-05 01:09 32.73499 -117.20425 24 ft 4 kts 165°
2026-05-05 01:09 32.73523 -117.20438 22 ft 4 kts 140°
2026-05-05 01:09 32.73536 -117.20461 23 ft 3 kts 96°
2026-05-05 01:09 32.73536 -117.20466 21 ft 1 kts 93°
2026-05-05 01:10 32.73536 -117.20465 21 ft 0 kts 93°
2026-05-05 01:11 32.73536 -117.20466 21 ft 0 kts 93°
2026-05-05 01:11 32.73536 -117.20465 21 ft 0 kts 93°
2026-05-05 01:13 32.73536 -117.20457 22 ft 4 kts 93°
2026-05-05 01:13 32.73553 -117.20395 23 ft 12 kts 68°
2026-05-05 01:14 32.73574 -117.20318 24 ft 8 kts 82°
2026-05-05 01:14 32.73565 -117.20249 24 ft 11 kts 104°
2026-05-05 01:14 32.73538 -117.20125 26 ft 18 kts 107°
2026-05-05 01:14 32.73499 -117.19972 26 ft 20 kts 104°
2026-05-05 01:15 32.73459 -117.19806 28 ft 21 kts 107°
2026-05-05 01:15 32.73416 -117.19635 28 ft 20 kts 105°
2026-05-05 01:15 32.73382 -117.19493 27 ft 19 kts 106°
2026-05-05 01:15 32.73345 -117.19342 25 ft 21 kts 106°
2026-05-05 01:16 32.73310 -117.19194 25 ft 19 kts 106°
2026-05-05 01:16 32.73274 -117.19046 25 ft 20 kts 106°
2026-05-05 01:16 32.73233 -117.18879 26 ft 22 kts 106°
2026-05-05 01:16 32.73189 -117.18697 26 ft 24 kts 106°
2026-05-05 01:17 32.73142 -117.18504 23 ft 22 kts 106°
2026-05-05 01:17 32.73100 -117.18330 25 ft 24 kts 106°
2026-05-05 01:17 32.73054 -117.18142 20 ft 26 kts 106°
2026-05-05 01:17 32.73007 -117.17948 19 ft 27 kts 106°
2026-05-05 01:18 32.72958 -117.17742 17 ft 19 kts 107°
2026-05-05 01:18 32.72951 -117.17690 18 ft 0 kts 85°
2026-05-05 01:22 32.72952 -117.17683 18 ft 3 kts 78°
2026-05-05 01:22 32.72971 -117.17619 20 ft 14 kts 69°
2026-05-05 01:23 32.73029 -117.17615 24 ft 14 kts 287°
2026-05-05 01:23 32.73082 -117.17832 19 ft 57 kts 286°
2026-05-05 01:23 32.73264 -117.18586 25 ft 129 kts 285°
2026-05-05 01:23 32.73573 -117.19801 268 ft 165 kts 285°
2026-05-05 01:24 32.73803 -117.20673 770 ft 169 kts 285°
2026-05-05 01:24 32.74160 -117.22050 1605 ft 176 kts 287°
2026-05-05 01:24 32.74702 -117.23396 2393 ft 193 kts 301°
2026-05-05 01:24 32.75585 -117.24703 3036 ft 215 kts 306°
2026-05-05 01:25 32.76534 -117.26141 3915 ft 224 kts 305°
2026-05-05 01:25 32.77483 -117.27657 4855 ft 233 kts 304°
2026-05-05 01:25 32.78467 -117.29248 5739 ft 243 kts 304°
2026-05-05 01:25 32.79479 -117.30886 6687 ft 249 kts 304°
2026-05-05 01:26 32.80537 -117.32544 7643 ft 256 kts 305°
2026-05-05 01:26 32.81647 -117.34257 8529 ft 264 kts 305°
2026-05-05 01:26 32.82802 -117.36007 9423 ft 272 kts 303°
2026-05-05 01:26 32.83938 -117.37799 10357 ft 274 kts 302°
2026-05-05 01:27 32.85096 -117.39622 11256 ft 280 kts 302°
2026-05-05 01:27 32.86288 -117.41527 11922 ft 292 kts 301°
2026-05-05 01:27 32.87510 -117.43495 12744 ft 298 kts 301°
2026-05-05 01:27 32.88742 -117.45455 13589 ft 305 kts 302°
2026-05-05 01:28 32.90064 -117.47514 14154 ft 319 kts 302°
2026-05-05 01:28 32.91435 -117.49648 14777 ft 328 kts 302°
2026-05-05 01:28 32.92830 -117.51819 15609 ft 330 kts 302°
2026-05-05 01:28 32.94238 -117.54013 16377 ft 335 kts 302°
2026-05-05 01:29 32.95645 -117.56205 17142 ft 339 kts 301°
2026-05-05 01:29 32.97093 -117.58463 17904 ft 343 kts 301°
2026-05-05 01:29 32.98542 -117.60725 18594 ft 347 kts 301°
2026-05-05 01:29 33.00020 -117.63034 19271 ft 349 kts 301°
2026-05-05 01:30 33.01486 -117.65324 19973 ft 351 kts 300°
2026-05-05 01:30 33.02978 -117.67658 20619 ft 354 kts 300°
2026-05-05 01:30 33.04474 -117.69998 21304 ft 355 kts 299°
2026-05-05 01:30 33.05971 -117.72324 21971 ft 358 kts 301°
2026-05-05 01:31 33.07825 -117.74405 22667 ft 370 kts 310°
2026-05-05 01:31 33.09791 -117.76406 23293 ft 371 kts 309°
2026-05-05 01:31 33.11746 -117.78407 23840 ft 374 kts 309°
2026-05-05 01:31 33.13749 -117.80450 24321 ft 378 kts 309°
2026-05-05 01:32 33.15056 -117.81782 24613 ft 380 kts 308°
2026-05-05 01:32 33.17082 -117.83846 25069 ft 384 kts 308°
2026-05-05 01:32 33.19117 -117.85940 25512 ft 384 kts 305°
2026-05-05 01:32 33.21000 -117.88212 25934 ft 385 kts 303°
2026-05-05 01:33 33.22870 -117.90472 26361 ft 389 kts 303°
2026-05-05 01:33 33.24784 -117.92767 26809 ft 392 kts 303°
2026-05-05 01:33 33.26734 -117.95096 27236 ft 396 kts 302°
2026-05-05 01:33 33.28675 -117.97411 27661 ft 399 kts 302°
2026-05-05 01:34 33.30645 -117.99761 28082 ft 402 kts 302°
2026-05-05 01:34 33.32647 -118.02150 28492 ft 405 kts 302°
2026-05-05 01:34 33.34650 -118.04543 28890 ft 408 kts 301°
2026-05-05 01:34 33.36655 -118.06938 29310 ft 411 kts 302°
2026-05-05 01:35 33.38695 -118.09376 29743 ft 414 kts 302°
2026-05-05 01:35 33.40711 -118.11789 30137 ft 417 kts 302°
2026-05-05 01:35 33.42785 -118.14272 30469 ft 419 kts 302°
2026-05-05 01:35 33.44855 -118.16752 30792 ft 422 kts 302°
2026-05-05 01:36 33.46920 -118.19228 31115 ft 424 kts 302°
2026-05-05 01:36 33.49000 -118.21724 31429 ft 427 kts 302°
2026-05-05 01:36 33.51118 -118.24268 31749 ft 429 kts 302°
2026-05-05 01:36 33.53217 -118.26790 32059 ft 431 kts 302°
2026-05-05 01:37 33.55351 -118.29357 32368 ft 434 kts 302°
2026-05-05 01:37 33.57487 -118.31929 32681 ft 437 kts 302°
2026-05-05 01:37 33.59622 -118.34499 32957 ft 439 kts 302°
2026-05-05 01:37 33.61789 -118.37111 33297 ft 441 kts 302°
2026-05-05 01:38 33.63944 -118.39710 33693 ft 441 kts 302°
2026-05-05 01:38 33.66124 -118.42342 34091 ft 441 kts 302°
2026-05-05 01:38 33.68263 -118.44925 34419 ft 440 kts 302°
2026-05-05 01:38 33.70428 -118.47542 34758 ft 439 kts 302°
2026-05-05 01:39 33.72564 -118.50127 35084 ft 439 kts 302°
2026-05-05 01:39 33.74711 -118.52725 35413 ft 438 kts 303°
2026-05-05 01:39 33.76872 -118.55344 35731 ft 438 kts 303°
2026-05-05 01:39 33.78998 -118.57923 36001 ft 439 kts 303°
2026-05-05 01:40 33.83310 -118.63158 36026 ft 437 kts 303°
2026-05-05 01:40 33.87576 -118.68346 36062 ft 437 kts 303°
2026-05-05 01:41 33.91838 -118.73536 36044 ft 436 kts 303°
2026-05-05 01:41 33.96101 -118.78734 36033 ft 438 kts 303°
2026-05-05 01:42 34.00378 -118.83958 36021 ft 438 kts 303°
2026-05-05 01:42 34.04666 -118.89203 36022 ft 438 kts 303°
2026-05-05 01:43 34.08938 -118.94432 36020 ft 437 kts 304°
2026-05-05 01:43 34.13191 -118.99656 36020 ft 437 kts 303°
2026-05-05 01:44 34.15035 -119.02474 36026 ft 419 kts 290°
2026-05-05 01:44 34.16551 -119.05467 36025 ft 424 kts 292°
2026-05-05 01:44 34.19703 -119.11493 36049 ft 423 kts 291°
2026-05-05 01:45 34.22795 -119.17486 36042 ft 423 kts 291°
2026-05-05 01:45 34.25904 -119.23532 36057 ft 424 kts 292°
2026-05-05 01:46 34.29026 -119.29612 36057 ft 426 kts 292°
2026-05-05 01:46 34.32141 -119.35691 36045 ft 426 kts 292°
2026-05-05 01:47 34.35255 -119.41776 36022 ft 426 kts 292°
2026-05-05 01:47 34.38379 -119.47894 36025 ft 427 kts 292°
2026-05-05 01:48 34.41664 -119.53890 36014 ft 440 kts 304°
2026-05-05 01:48 34.45973 -119.59199 36004 ft 443 kts 305°
2026-05-05 01:49 34.50309 -119.64554 35970 ft 443 kts 305°
2026-05-05 01:49 34.54625 -119.69867 36030 ft 445 kts 306°
2026-05-05 01:50 34.58946 -119.75200 35998 ft 443 kts 305°
2026-05-05 01:50 34.63278 -119.80555 36007 ft 444 kts 305°
2026-05-05 01:51 34.67613 -119.85920 36018 ft 444 kts 306°
2026-05-05 01:51 34.71913 -119.91247 35997 ft 442 kts 306°
2026-05-05 01:52 34.76204 -119.96578 36027 ft 444 kts 306°
2026-05-05 01:52 34.80542 -120.01973 36031 ft 445 kts 306°
2026-05-05 01:53 34.84858 -120.07348 36020 ft 443 kts 306°
2026-05-05 01:53 34.89162 -120.12719 36043 ft 443 kts 307°
2026-05-05 01:54 34.93475 -120.18108 36036 ft 443 kts 307°
2026-05-05 01:54 34.97776 -120.23490 36037 ft 443 kts 307°
2026-05-05 01:55 35.02056 -120.28855 36065 ft 442 kts 307°
2026-05-05 01:55 35.06357 -120.34253 36049 ft 443 kts 307°
2026-05-05 01:56 35.10805 -120.39456 36055 ft 446 kts 311°
2026-05-05 01:56 35.15373 -120.44551 36043 ft 445 kts 311°
2026-05-05 01:57 35.19924 -120.49668 36049 ft 446 kts 311°
2026-05-05 01:57 35.23351 -120.53529 36055 ft 445 kts 311°
2026-05-05 01:58 35.27897 -120.58656 36038 ft 446 kts 312°
2026-05-05 01:58 35.32462 -120.63814 36032 ft 446 kts 312°
2026-05-05 01:59 35.37010 -120.68961 36036 ft 446 kts 312°
2026-05-05 01:59 35.41577 -120.74138 36032 ft 446 kts 313°
2026-05-05 02:00 35.46114 -120.79288 36037 ft 446 kts 313°
2026-05-05 02:00 35.50952 -120.84078 36062 ft 449 kts 319°
2026-05-05 02:01 35.55967 -120.88683 36033 ft 449 kts 318°
2026-05-05 02:01 35.60958 -120.93332 36026 ft 449 kts 319°
2026-05-05 02:02 35.65901 -120.97950 36040 ft 449 kts 320°
2026-05-05 02:02 35.70867 -121.02596 36028 ft 447 kts 320°
2026-05-05 02:03 35.75798 -121.07217 36021 ft 448 kts 320°
2026-05-05 02:03 35.80768 -121.11883 36020 ft 447 kts 320°
2026-05-05 02:04 35.84872 -121.15740 36021 ft 447 kts 320°
2026-05-05 02:04 35.90632 -121.21164 36021 ft 447 kts 320°
2026-05-05 02:05 35.94789 -121.25084 36032 ft 447 kts 321°
2026-05-05 02:05 35.99696 -121.29720 36017 ft 446 kts 321°
2026-05-05 02:06 36.04603 -121.34359 35945 ft 437 kts 320°
2026-05-05 02:06 36.07029 -121.36584 35582 ft 431 kts 326°
2026-05-05 02:06 36.09571 -121.38484 35017 ft 432 kts 328°
2026-05-05 02:07 36.12125 -121.40447 34522 ft 430 kts 328°
2026-05-05 02:07 36.14660 -121.42418 33971 ft 430 kts 328°
2026-05-05 02:07 36.17202 -121.44408 33157 ft 435 kts 328°
2026-05-05 02:07 36.19797 -121.46447 32331 ft 444 kts 329°
2026-05-05 02:08 36.22381 -121.48478 31617 ft 445 kts 329°
2026-05-05 02:08 36.25000 -121.50538 30946 ft 445 kts 329°
2026-05-05 02:08 36.27615 -121.52598 30251 ft 446 kts 329°
2026-05-05 02:08 36.30246 -121.54672 29354 ft 448 kts 329°
2026-05-05 02:09 36.32851 -121.56727 28588 ft 447 kts 329°
2026-05-05 02:09 36.35469 -121.58794 27854 ft 441 kts 329°
2026-05-05 02:09 36.38043 -121.60827 27145 ft 436 kts 329°
2026-05-05 02:09 36.40593 -121.62844 26415 ft 431 kts 329°
2026-05-05 02:10 36.43089 -121.64819 25705 ft 427 kts 330°
2026-05-05 02:10 36.45580 -121.66791 24986 ft 423 kts 330°
2026-05-05 02:10 36.48059 -121.68755 24273 ft 420 kts 330°
2026-05-05 02:10 36.50496 -121.70680 23640 ft 416 kts 330°
2026-05-05 02:11 36.52926 -121.72599 23062 ft 408 kts 330°
2026-05-05 02:11 36.55307 -121.74480 22562 ft 399 kts 330°
2026-05-05 02:11 36.57632 -121.76320 22100 ft 390 kts 329°
2026-05-05 02:11 36.59877 -121.78097 21648 ft 382 kts 330°
2026-05-05 02:12 36.62106 -121.79862 21211 ft 374 kts 330°
2026-05-05 02:12 36.66448 -121.83304 20341 ft 368 kts 330°
2026-05-05 02:12 36.68580 -121.84996 19931 ft 366 kts 330°
2026-05-05 02:13 36.70722 -121.86697 19521 ft 364 kts 330°
2026-05-05 02:13 36.72857 -121.88389 19119 ft 361 kts 331°
2026-05-05 02:13 36.75156 -121.89598 18600 ft 357 kts 349°
2026-05-05 02:13 36.77564 -121.90294 18193 ft 354 kts 351°
2026-05-05 02:14 36.79993 -121.90462 18047 ft 354 kts
2026-05-05 02:14 36.82425 -121.90094 17914 ft 353 kts
2026-05-05 02:14 36.84798 -121.90795 17531 ft 353 kts 339°
2026-05-05 02:14 36.87086 -121.91924 16933 ft 354 kts 343°
2026-05-05 02:15 36.89424 -121.92927 16354 ft 353 kts 343°
2026-05-05 02:15 36.91754 -121.93898 15739 ft 352 kts 343°
2026-05-05 02:15 36.94076 -121.94848 15161 ft 350 kts 343°
2026-05-05 02:15 36.96363 -121.95754 14646 ft 346 kts 345°
2026-05-05 02:16 36.98651 -121.96647 14212 ft 341 kts 345°
2026-05-05 02:16 37.00898 -121.97524 13799 ft 335 kts 345°
2026-05-05 02:16 37.03111 -121.98388 13316 ft 330 kts 345°
2026-05-05 02:16 37.05269 -121.99230 12857 ft 326 kts 344°
2026-05-05 02:17 37.07432 -122.00075 12407 ft 320 kts 344°
2026-05-05 02:17 37.09530 -122.00895 11986 ft 311 kts 344°
2026-05-05 02:17 37.11581 -122.01698 11574 ft 303 kts 344°
2026-05-05 02:17 37.13552 -122.02468 11174 ft 296 kts 343°
2026-05-05 02:18 37.15501 -122.03232 10775 ft 288 kts 344°
2026-05-05 02:18 37.17385 -122.03969 10394 ft 279 kts 344°
2026-05-05 02:18 37.19196 -122.04679 10032 ft 271 kts 343°
2026-05-05 02:18 37.20984 -122.05380 9629 ft 267 kts 343°
2026-05-05 02:19 37.22751 -122.06074 9260 ft 269 kts 343°
2026-05-05 02:19 37.24542 -122.06776 8847 ft 266 kts 343°
2026-05-05 02:19 37.26292 -122.07464 8314 ft 266 kts 343°
2026-05-05 02:19 37.28062 -122.08160 7866 ft 266 kts 344°
2026-05-05 02:20 37.29789 -122.08838 7491 ft 273 kts 343°
2026-05-05 02:20 37.31643 -122.09568 7134 ft 276 kts 344°
2026-05-05 02:20 37.33493 -122.10296 6782 ft 278 kts 343°
2026-05-05 02:20 37.35330 -122.11022 6417 ft 279 kts 343°
2026-05-05 02:21 37.37189 -122.11752 6056 ft 278 kts 344°
2026-05-05 02:21 37.39017 -122.12387 5721 ft 274 kts 345°
2026-05-05 02:21 37.40855 -122.13017 5392 ft 268 kts 345°
2026-05-05 02:21 37.42614 -122.13625 5100 ft 259 kts 344°
2026-05-05 02:22 37.44310 -122.14214 4813 ft 249 kts 344°
2026-05-05 02:22 37.45959 -122.14767 4503 ft 241 kts 345°
2026-05-05 02:22 37.47535 -122.15284 4222 ft 232 kts 344°
2026-05-05 02:22 37.49112 -122.15804 3917 ft 232 kts 343°
2026-05-05 02:23 37.50679 -122.16322 3641 ft 231 kts 343°
2026-05-05 02:23 37.52217 -122.16835 3386 ft 228 kts 340°
2026-05-05 02:23 37.53536 -122.17796 3145 ft 212 kts 315°
2026-05-05 02:23 37.54435 -122.19172 2934 ft 198 kts 301°
2026-05-05 02:24 37.55062 -122.20621 2721 ft 184 kts 295°
2026-05-05 02:24 37.55621 -122.22029 2482 ft 175 kts 295°
2026-05-05 02:24 37.56176 -122.23369 2257 ft 174 kts 295°
2026-05-05 02:24 37.56740 -122.24715 2023 ft 172 kts 295°
2026-05-05 02:25 37.57299 -122.26047 1792 ft 170 kts 296°
2026-05-05 02:25 37.57846 -122.27353 1557 ft 163 kts 296°
2026-05-05 02:25 37.58350 -122.28554 1379 ft 151 kts 297°
2026-05-05 02:25 37.58812 -122.29658 1156 ft 135 kts 297°
2026-05-05 02:26 37.59240 -122.30677 962 ft 131 kts 296°
2026-05-05 02:26 37.59667 -122.31698 787 ft 130 kts 296°
2026-05-05 02:26 37.60092 -122.32698 581 ft 129 kts 296°
2026-05-05 02:26 37.60514 -122.33706 420 ft 127 kts 296°
2026-05-05 02:27 37.60937 -122.34701 267 ft 129 kts 295°
2026-05-05 02:27 37.61351 -122.35708 81 ft 129 kts 296°
2026-05-05 02:27 37.61737 -122.36638 24 ft 103 kts 298°
2026-05-05 02:27 37.61958 -122.37159 23 ft 41 kts 298°
2026-05-05 02:28 37.62105 -122.37508 24 ft 46 kts 298°
2026-05-05 02:28 37.62178 -122.37685 24 ft 12 kts 284°
2026-05-05 02:28 37.62136 -122.37721 25 ft 8 kts 199°
2026-05-05 02:28 37.62081 -122.37771 23 ft 11 kts 227°
2026-05-05 02:29 37.62023 -122.37853 24 ft 14 kts 227°
2026-05-05 02:29 37.61958 -122.37941 24 ft 8 kts 218°
2026-05-05 02:29 37.61905 -122.37931 25 ft 9 kts 144°
2026-05-05 02:29 37.61844 -122.37877 23 ft 12 kts 133°
2026-05-05 02:30 37.61801 -122.37775 23 ft 15 kts 112°
2026-05-05 02:30 37.61760 -122.37641 23 ft 18 kts 111°
2026-05-05 02:30 37.61709 -122.37488 23 ft 18 kts 116°
2026-05-05 02:30 37.61656 -122.37408 26 ft 9 kts 188°
2026-05-05 02:31 37.61590 -122.37445 24 ft 15 kts 207°
2026-05-05 02:31 37.61467 -122.37532 26 ft 23 kts 210°
2026-05-05 02:31 37.61331 -122.37635 25 ft 21 kts 211°
2026-05-05 02:31 37.61279 -122.37781 27 ft 18 kts 280°
2026-05-05 02:32 37.61327 -122.37905 26 ft 16 kts 298°
2026-05-05 02:32 37.61382 -122.38034 26 ft 16 kts 298°
2026-05-05 02:32 37.61386 -122.38143 25 ft 13 kts 219°
2026-05-05 02:32 37.61319 -122.38229 25 ft 15 kts 250°
2026-05-05 02:33 37.61258 -122.38317 23 ft 8 kts 210°
2026-05-05 02:33 37.61220 -122.38345 23 ft 4 kts 221°
2026-05-05 02:33 37.61221 -122.38374 23 ft 4 kts 293°
2026-05-05 02:33 37.61228 -122.38392 23 ft 2 kts 296°
2026-05-05 02:34 37.61234 -122.38406 23 ft 2 kts 297°
2026-05-05 02:34 37.61235 -122.38410 25 ft 0 kts 297°